Weather History for Frederick, OK

Change the Weather History Date:

Tuesday, November 20, 2012

  Actual Average (KLTS) Record (KLTS)
Temperature  
Mean Temperature 60 °F -  
Max Temperature 77 °F 57 °F 82 °F (2007)
Min Temperature 44 °F 35 °F 26 °F (2000)
Degree Days  
Heating Degree Days 4    
Growing Degree Days 10 (Base 50)    
Moisture  
Dew Point 48 °F    
Average Humidity 72    
Maximum Humidity 93    
Minimum Humidity 38    
Precipitation  
Precipitation 0.00 in - - ()
Sea Level Pressure  
Sea Level Pressure 30.14 in    
Wind  
Wind Speed 8 mph (ENE)    
Max Wind Speed 10 mph    
Max Gust Speed -    
Visibility 8 miles    
Events      
Averages and records for this station are not official NWS values.
T = Trace of Precipitation, MM = Missing Value Source: NWS Daily Summary

Daily Weather History Graph

Daily Weather History Graph

Search for Another Location

Airport:

Trip Planner

Search our weather history database for the weather conditions in past years. The results will help you decide how hot, cold, wet, or windy it might be!

Date:

Astronomy

Nov. 20, 2012 Rise Set
Actual Time 7:14 AM CST 5:28 PM CST
Civil Twilight 6:47 AM CST 5:55 PM CST
Nautical Twilight 6:16 AM CST 6:26 PM CST
Astronomical Twilight 5:46 AM CST 6:56 PM CST
Moon 12:58 PM CST No Moon Set
Length of Visible Light 11h 08m
Length of Day
10h 14m
First Quarter, 51% of the Moon is Illuminated
Nov 20
First Quarter
Nov 28
Full
Dec 6
Last Quarter
Dec 13
New
Dec 19
First Quarter

Hourly Weather History & Observations

Time (CST) Temp. Windchill Dew Point Humidity Pressure Visibility Wind Dir Wind Speed Gust Speed Precip Events Conditions
12:53 AM 52.0 °F - 46.9 °F 83% 30.08 in 10.0 mi ENE 8.1 mph - N/A   Clear
1:53 AM 50.0 °F - 46.9 °F 89% 30.08 in 10.0 mi NE 9.2 mph - N/A   Clear
2:53 AM 50.0 °F - 46.9 °F 89% 30.09 in 8.0 mi NE 9.2 mph - N/A   Clear
3:53 AM 48.9 °F - 46.0 °F 90% 30.09 in 7.0 mi NNE 10.4 mph - N/A   Clear
4:53 AM 48.0 °F - 46.0 °F 93% 30.09 in 5.0 mi NE 9.2 mph - N/A   Clear
5:53 AM 46.9 °F - 45.0 °F 93% 30.11 in 3.0 mi NNE 9.2 mph - N/A   Clear
6:14 AM 46.4 °F 42.4 °F 44.6 °F 93% 30.13 in 1.5 mi NNE 8.1 mph - N/A   Clear
6:34 AM 46.4 °F 42.4 °F 44.6 °F 93% 30.14 in 3.0 mi NNE 8.1 mph - N/A   Clear
6:53 AM 46.0 °F 41.9 °F 44.1 °F 93% 30.13 in 3.0 mi NNE 8.1 mph - N/A   Clear
7:05 AM 44.6 °F 40.2 °F 42.8 °F 93% 30.15 in 2.0 mi NNE 8.1 mph - N/A   Clear
7:53 AM 46.9 °F - 45.0 °F 93% 30.17 in 3.0 mi North 5.8 mph - N/A   Clear
8:53 AM 55.0 °F - 51.1 °F 86% 30.19 in 6.0 mi NE 8.1 mph - N/A   Clear
9:53 AM 61.0 °F - 52.0 °F 72% 30.20 in 9.0 mi ENE 6.9 mph - N/A   Clear
10:53 AM 66.0 °F - 54.0 °F 65% 30.20 in 10.0 mi ENE 8.1 mph - N/A   Clear
11:53 AM 71.1 °F - 54.0 °F 55% 30.18 in 10.0 mi ENE 8.1 mph - N/A   Clear
12:53 PM 75.0 °F - 54.0 °F 48% 30.14 in 10.0 mi ENE 8.1 mph - N/A   Clear
1:53 PM 75.9 °F - 52.0 °F 43% 30.11 in 10.0 mi Variable 6.9 mph - N/A   Clear
2:53 PM 77.0 °F - 51.1 °F 40% 30.09 in 10.0 mi ESE 6.9 mph - N/A   Clear
3:53 PM 75.9 °F - 48.9 °F 38% 30.10 in 10.0 mi ESE 8.1 mph - N/A   Clear
4:53 PM 75.0 °F - 48.9 °F 40% 30.11 in 10.0 mi ESE 5.8 mph - N/A   Clear
5:53 PM 64.9 °F - 46.0 °F 50% 30.13 in 10.0 mi North - - N/A   Clear
6:53 PM 62.1 °F - 46.0 °F 56% 30.15 in 10.0 mi ESE 8.1 mph - N/A   Clear
7:53 PM 59.0 °F - 46.0 °F 62% 30.16 in 10.0 mi East 8.1 mph - N/A   Clear
8:53 PM 57.9 °F - 46.9 °F 67% 30.17 in 10.0 mi East 6.9 mph - N/A   Clear
9:53 PM 57.0 °F - 46.9 °F 69% 30.17 in 10.0 mi ENE 6.9 mph - N/A   Clear
10:53 PM 55.0 °F - 46.0 °F 72% 30.16 in 10.0 mi ENE 9.2 mph - N/A   Clear
11:53 PM 51.1 °F - 44.1 °F 77% 30.16 in 10.0 mi Calm Calm - N/A   Clear